Torch Lake Weather Center

Moon Phase Calendar



Torch Lake Water Level
Online Cameras

 


      

Current Conditions in Bellaire
1/17/2022 1:32:45 AM

21°F
Feels Like 21
Clouds
Humidity
74%
Pressure
29.68"
Wind
0
Dew Point
15°F
UV Index
0/10 (Low)
Visibility
6 mi

Hourly Forecast

Date & Time Mon, Jan 17
1:00 AM
Mon, Jan 17
2:00 AM
Mon, Jan 17
3:00 AM
Mon, Jan 17
4:00 AM
Mon, Jan 17
5:00 AM
Mon, Jan 17
6:00 AM
Mon, Jan 17
7:00 AM
Mon, Jan 17
8:00 AM
Mon, Jan 17
9:00 AM
Mon, Jan 17
10:00 AM
Mon, Jan 17
11:00 AM
Mon, Jan 17
12:00 PM
Mon, Jan 17
1:00 PM
Mon, Jan 17
2:00 PM
Mon, Jan 17
3:00 PM
Mon, Jan 17
4:00 PM
Mon, Jan 17
5:00 PM
Mon, Jan 17
6:00 PM
Mon, Jan 17
7:00 PM
Mon, Jan 17
8:00 PM
Mon, Jan 17
9:00 PM
Mon, Jan 17
10:00 PM
Mon, Jan 17
11:00 PM
Tue, Jan 18
12:00 AM
Tue, Jan 18
1:00 AM
Tue, Jan 18
2:00 AM
Tue, Jan 18
3:00 AM
Tue, Jan 18
4:00 AM
Tue, Jan 18
5:00 AM
Tue, Jan 18
6:00 AM
Tue, Jan 18
7:00 AM
Tue, Jan 18
8:00 AM
Tue, Jan 18
9:00 AM
Tue, Jan 18
10:00 AM
Tue, Jan 18
11:00 AM
Tue, Jan 18
12:00 PM
Tue, Jan 18
1:00 PM
Tue, Jan 18
2:00 PM
Tue, Jan 18
3:00 PM
Tue, Jan 18
4:00 PM
Tue, Jan 18
5:00 PM
Tue, Jan 18
6:00 PM
Tue, Jan 18
7:00 PM
Tue, Jan 18
8:00 PM
Tue, Jan 18
9:00 PM
Tue, Jan 18
10:00 PM
Tue, Jan 18
11:00 PM
Wed, Jan 19
12:00 AM
Condition
Clouds

Snow

Snow

Clouds

Clouds

Clouds

Clouds

Clouds

Clouds

Snow

Clouds

Clouds

Snow

Snow

Clouds

Clouds

Clouds

Clouds

Clouds

Clouds

Clouds

Clouds

Clouds

Clouds

Snow

Clouds

Clouds

Clouds

Clouds

Clouds

Clouds

Clouds

Clouds

Clouds

Clouds

Clouds

Clouds

Clouds

Snow

Snow

Snow

Snow

Clouds

Clouds

Clouds

Clouds

Snow

Snow
Temperature 21°F21°F22°F22°F22°F21°F21°F20°F22°F26°F27°F28°F28°F28°F28°F28°F28°F28°F27°F27°F26°F26°F25°F24°F23°F23°F22°F20°F18°F15°F13°F12°F14°F17°F20°F23°F26°F27°F27°F26°F26°F26°F27°F29°F32°F32°F34°F34°F
Feels Like 16°F14°F12°F11°F10°F9°F10°F10°F11°F13°F15°F16°F16°F16°F16°F16°F16°F15°F15°F14°F14°F13°F13°F13°F13°F13°F13°F12°F9°F6°F3°F2°F4°F6°F9°F12°F15°F16°F15°F15°F13°F13°F14°F17°F20°F21°F24°F23°F
Cloudiness 100%100%100%100%100%99%99%90%93%95%96%97%97%100%100%100%100%100%100%100%100%100%100%100%100%100%100%100%100%99%96%97%99%99%95%93%94%100%100%100%100%100%100%100%100%100%100%100%
Visibility 1 mi0 mi1 mi2 mi6 mi5 mi1 mi5 mi2 mi2 mi4 mi3 mi3 mi5 mi6 mi6 mi6 mi6 mi6 mi6 mi6 mi6 mi5 mi4 mi3 mi6 mi6 mi3 mi2 mi2 mi6 mi6 mi6 mi6 mi6 mi6 mi6 mi1 mi0 mi0 mi0 mi1 mi2 mi6 mi6 mi4 mi3 mi2 mi
Precipitation 15%28%28%4%8%4%4%0%0%28%9%12%36%44%24%8%4%8%12%31%41%41%41%41%32%15%12%8%8%8%4%0%0%0%0%0%0%15%46%93%99%99%79%53%41%41%54%65%
Humidity 78%74%78%81%83%86%93%93%92%89%84%84%87%83%77%76%78%77%79%81%81%80%82%84%85%84%83%87%91%94%94%93%90%87%84%82%80%85%93%94%94%92%88%88%87%89%94%95%
Dew Point 16°F15°F16°F17°F18°F18°F19°F18°F19°F22°F23°F23°F24°F23°F22°F21°F21°F21°F21°F21°F21°F20°F19°F19°F19°F18°F16°F16°F14°F13°F10°F8°F10°F12°F15°F18°F20°F23°F24°F24°F24°F23°F23°F26°F28°F29°F32°F33°F
Pressure 29.68"29.68"29.68"29.68"29.65"29.68"29.65"29.65"29.68"29.68"29.68"29.68"29.68"29.65"29.65"29.71"29.71"29.74"29.77"29.8"29.8"29.83"29.83"29.83"29.85"29.85"29.88"29.91"29.94"29.94"29.97"30"30"30"30"29.94"29.88"29.85"29.8"29.8"29.74"29.71"29.68"29.62"29.59"29.53"29.5"29.5"
Wind Speed 3.8 mph5.5 mph8.8 mph9.8 mph11.2 mph10.8 mph11 mph9.3 mph10.8 mph15.5 mph17 mph16.6 mph16.2 mph17.6 mph16.8 mph16.1 mph16.6 mph17.2 mph16.8 mph16.5 mph16.5 mph15.6 mph13.8 mph12.1 mph10.6 mph8.4 mph7.1 mph5.6 mph6.6 mph6.4 mph6.6 mph6.4 mph7 mph8.3 mph9.9 mph11 mph11.6 mph12.3 mph13.6 mph13.9 mph15.8 mph17.5 mph18.9 mph18.4 mph19 mph17.8 mph16.9 mph19.2 mph
Wind
Direction
256°
WSW
312°
NW
345°
NNW
348°
NNW
359°
N

N
352°
N
357°
N
355°
N
346°
NNW
346°
NNW
346°
NNW
343°
NNW
336°
NNW
333°
NNW
331°
NNW
327°
NNW
326°
NW
325°
NW
324°
NW
325°
NW
328°
NNW
333°
NNW
336°
NNW
335°
NNW
339°
NNW
343°
NNW

N
50°
NE
74°
ENE
84°
E
100°
E
110°
ESE
121°
ESE
127°
SE
141°
SE
152°
SSE
157°
SSE
149°
SSE
142°
SE
136°
SE
138°
SE
154°
SSE
164°
SSE
178°
S
189°
S
219°
SW
241°
WSW

Daily Forecast

Date High Low Precip. Humidity
Today
Jan 17

Snow
28 °F
20 °F
44%
84%
Tuesday
Jan 18

Snow
32 °F
12 °F
99%
82%
Wednesday
Jan 19

Snow
34 °F
15 °F
80%
90%
Thursday
Jan 20

Snow
16 °F
15 °F
38%
74%
Friday
Jan 21

Snow
21 °F
12 °F
36%
72%
Saturday
Jan 22

Snow
27 °F
16 °F
100%
90%
Sunday
Jan 23

Snow
28 °F
13 °F
100%
79%
Monday
Jan 24

Snow
19 °F
9 °F
40%
72%
Tuesday
Jan 25

Snow
14 °F
3 °F
33%
76%
Wednesday
Jan 26

Snow
20 °F
-1 °F
33%
81%
Thursday
Jan 27

Clouds
24 °F
10 °F
6%
73%
Friday
Jan 28

Snow
29 °F
10 °F
35%
86%
Saturday
Jan 29

Snow
33 °F
27 °F
38%
85%
Sunday
Jan 30

Snow
33 °F
17 °F
64%
83%
Monday
Jan 31

Snow
14 °F
1 °F
40%
81%
Tuesday
Feb 1

Snow
18 °F
0 °F
28%
81%

Temperature 8-14 Day Outlook



Precipitation 8-14 Day Outlook




Quick Links
Torch Lake News
Torch Lake Photos
Torch Lake Videos




About Us
Contact Us
Site Map
Search Site
Advertise With Us
   
Torch.LakesOnline.com
THE TORCH LAKE WEBSITE

Copyright 2022, Lakes Online
Privacy    |    Legal